Date,TemperatureHighF,TemperatureAvgF,TemperatureLowF,DewpointHighF,DewpointAvgF,DewpointLowF,HumidityHigh,HumidityAvg,HumidityLow,PressureMaxIn,PressureMinIn,WindSpeedMaxMPH,WindSpeedAvgMPH,GustSpeedMaxMPH,PrecipitationSumIn
2014-1-1,15,13,9,1,-2,-6,60,51,47,30.16,30.10,18,10,0,0.00
2014-1-2,-9,-9,-10,-16,-17,-17,69,68,68,30.34,30.32,6,4,0,0.00
2014-1-5,34,26,19,21,18,8,89,72,46,30.16,29.98,4,2,0,0.12
2014-1-6,46,34,24,45,32,14,98,92,63,29.97,29.05,11,4,0,2.11
2014-1-7,23,13,7,14,-1,-10,69,53,35,29.74,29.19,24,10,0,0.01
2014-1-8,21,18,13,3,2,1,61,50,44,30.20,30.09,15,9,0,0.00
2014-1-9,23,20,13,2,1,-1,57,44,39,30.45,30.35,10,6,0,0.00
2014-1-10,19,17,16,12,11,10,78,76,72,30.22,30.17,3,0,0,0.00
2014-1-11,38,31,19,38,30,17,98,94,89,29.96,29.01,4,2,0,0.66
2014-1-12,43,39,34,40,30,24,98,71,56,29.71,29.03,20,8,0,0.13
2014-1-13,44,35,29,30,25,21,82,67,49,29.92,29.72,12,5,0,0.00
2014-1-14,42,39,35,40,37,30,97,93,76,29.73,29.47,7,3,0,0.90
2014-1-15,43,36,31,36,31,28,97,83,65,29.88,29.53,8,3,0,0.06
2014-1-16,36,32,30,31,28,27,96,86,76,29.83,29.77,7,4,0,0.00
2014-1-17,38,32,27,34,29,25,94,89,78,29.82,29.72,8,2,0,0.11
2014-1-18,39,30,24,29,24,21,94,81,65,29.79,29.54,6,2,0,0.00
2014-1-19,33,28,24,28,22,16,88,78,65,29.55,29.21,17,4,0,0.01
2014-1-20,28,20,2,23,13,-8,84,72,56,29.70,29.25,13,6,0,0.00
2014-1-21,10,2,-5,-8,-10,-13,72,58,40,29.93,29.72,10,4,0,0.00
2014-1-22,9,0,-5,-4,-9,-14,68,63,53,29.88,29.52,13,8,0,0.03
2014-1-23,17,5,-4,0,-6,-12,70,61,44,29.90,29.71,10,4,0,0.00
2014-1-24,13,4,-4,-6,-8,-12,70,56,41,30.02,29.82,9,4,0,0.00
2014-1-25,26,17,0,23,9,-8,91,71,56,29.82,29.06,18,6,0,0.00
2014-1-26,21,10,4,18,-4,-14,88,55,34,29.74,29.01,20,7,0,0.01
2014-1-27,27,15,7,23,4,-7,87,65,38,29.78,29.30,19,6,0,0.01
2014-1-28,17,8,1,-5,-9,-14,62,46,31,30.10,29.79,18,5,0,0.00
2014-1-29,20,10,0,-2,-7,-10,64,47,29,30.06,29.71,11,4,0,0.00
2014-1-30,26,16,7,8,3,-2,72,58,41,30.24,29.96,12,5,0,0.00
2014-1-31,36,25,14,17,12,6,70,58,41,30.01,29.79,13,5,0,0.00
2014-2-1,37,29,19,29,18,12,93,66,45,30.20,29.86,10,4,0,0.00
2014-2-2,37,32,26,32,30,24,95,91,82,29.92,29.70,5,2,0,0.06
2014-2-3,29,23,15,24,14,8,82,68,52,30.19,29.94,8,4,0,0.00
2014-2-4,31,19,7,12,8,2,82,64,44,30.32,30.18,9,4,0,0.01
2014-2-5,20,17,15,14,12,9,88,82,70,30.26,29.68,7,3,0,0.00
2014-2-6,31,16,5,13,6,1,85,66,40,30.09,29.82,6,3,0,0.00
2014-2-7,27,15,3,9,5,-1,82,64,43,30.01,29.93,16,5,0,0.01
2014-2-8,27,17,9,6,4,0,70,58,40,30.06,29.97,14,6,0,0.00
2014-2-9,26,16,7,11,5,1,85,62,40,30.05,29.85,7,2,0,0.00
2014-2-10,25,15,6,11,6,-2,87,68,44,30.02,29.81,14,4,0,0.00
2014-2-11,22,11,-1,1,-2,-9,74,57,37,30.23,30.02,14,5,0,0.00
2014-2-12,31,19,4,1,-3,-7,60,38,23,30.41,30.28,7,4,0,0.00
2014-2-13,30,21,9,28,15,0,92,76,49,30.29,29.20,14,6,0,0.00
2014-2-14,32,27,18,28,21,12,92,81,63,29.48,28.65,20,10,0,0.00
2014-2-15,32,24,17,22,18,13,89,78,63,29.77,29.41,8,4,0,0.00
2014-2-16,28,20,11,20,10,2,90,65,43,29.72,29.31,18,8,0,0.00
2014-2-17,25,14,6,2,-3,-7,65,47,32,30.20,29.72,17,6,0,0.00
2014-2-18,23,16,-1,17,7,-8,89,69,38,30.24,29.85,8,3,0,0.00
2014-2-19,35,26,14,29,22,12,94,87,72,29.92,29.63,9,4,0,0.00
2014-2-20,47,36,27,27,23,19,94,61,34,30.07,29.64,17,5,0,0.29
2014-2-21,33,32,29,32,29,22,95,89,71,30.09,29.55,8,4,0,0.58
2014-2-22,49,37,29,32,26,12,96,67,31,29.70,29.58,18,7,0,0.04
2014-2-23,47,37,28,19,14,10,50,39,29,29.80,29.59,12,4,0,0.00
2014-2-24,32,24,12,16,7,-1,64,50,35,29.69,29.51,17,7,0,0.00
2014-2-25,23,13,7,2,0,-3,69,54,38,29.76,29.66,14,5,0,0.00
2014-2-26,24,12,2,13,0,-8,75,60,42,29.77,29.56,12,4,0,0.00
2014-2-27,23,12,1,10,-1,-7,82,58,39,29.70,29.45,14,3,0,0.00
2014-2-28,22,11,5,5,-5,-11,82,49,28,30.32,29.60,16,5,0,0.01
2014-3-1,25,14,-2,9,-1,-11,64,52,40,30.32,29.89,9,4,0,0.00
2014-3-2,32,22,13,13,5,0,69,48,32,29.95,29.83,15,4,0,0.00
2014-3-3,21,11,0,0,-7,-13,66,45,28,30.14,29.89,15,4,0,0.00
2014-3-4,25,12,-4,4,-7,-16,66,44,25,30.19,30.07,10,4,0,0.00
2014-3-5,22,12,4,4,-1,-11,78,55,40,30.39,30.17,10,4,0,0.00
2014-3-6,33,16,-1,-8,-12,-15,52,30,13,30.49,30.34,8,3,0,0.00
2014-3-7,38,23,5,18,2,-10,81,45,14,30.35,29.83,16,5,0,0.00
2014-3-8,46,28,16,26,17,11,91,65,42,29.82,29.57,14,4,0,0.00
2014-3-9,34,24,15,11,4,-3,69,46,24,29.78,29.69,12,4,0,0.00
2014-3-10,37,26,17,20,10,-2,77,53,37,29.74,29.53,14,4,0,0.00
2014-3-11,38,32,26,33,28,20,93,83,64,29.56,29.34,9,4,0,0.17
2014-3-12,39,33,20,31,27,18,93,79,67,29.60,29.19,5,2,0,0.03
2014-3-13,17,12,8,14,8,3,89,84,75,29.56,29.08,7,2,0,0.00
2014-3-14,35,27,18,17,14,4,76,58,32,29.93,29.72,11,5,0,0.00
2014-3-15,45,33,25,34,27,17,92,78,60,29.71,29.47,7,3,0,0.25
2014-3-16,32,20,4,25,4,-8,75,52,37,30.03,29.61,20,10,0,0.01
2014-3-17,25,13,-1,-2,-6,-12,66,44,28,30.04,29.89,14,4,0,0.00
2014-3-18,41,24,3,4,-2,-7,64,35,18,30.23,30.03,7,3,0,0.00
2014-3-19,39,27,16,26,7,-4,92,45,26,30.29,29.97,11,5,0,0.00
2014-3-20,39,31,26,36,29,24,94,91,88,29.97,29.38,9,4,0,0.73
2014-3-21,39,34,31,23,21,19,67,58,48,29.70,29.45,16,11,0,0.02
2014-3-22,34,28,20,29,20,13,91,72,57,29.87,29.49,13,5,0,0.00
2014-3-23,34,25,9,21,11,-3,77,57,32,29.94,29.70,15,6,0,0.00
2014-3-24,26,20,11,2,-1,-5,51,38,32,29.95,29.85,14,7,0,0.00
2014-3-25,34,27,20,10,6,-1,62,41,30,29.97,29.87,11,4,0,0.00
2014-3-26,32,26,17,16,12,7,71,54,41,29.93,29.45,18,10,0,0.00
2014-3-27,37,28,12,9,3,-6,63,36,27,30.06,29.70,14,8,0,0.00
2014-3-28,40,34,28,36,27,14,92,74,55,30.02,29.76,9,5,0,0.01
2014-3-29,51,42,38,36,30,26,92,62,43,30.18,29.82,9,5,0,0.00
2014-3-30,37,33,32,31,29,26,93,88,63,30.09,29.72,16,8,0,0.54
2014-3-31,37,32,28,28,25,24,88,76,62,29.94,29.71,23,12,0,0.10
2014-4-1,52,39,27,24,17,7,75,45,17,30.02,29.91,17,8,0,0.07
2014-4-2,48,38,29,22,15,7,72,39,25,30.02,29.90,8,4,0,0.00
2014-4-3,46,36,26,24,21,19,81,57,38,30.05,29.93,12,4,0,0.00
2014-4-4,46,38,27,28,22,17,92,52,36,30.10,29.87,13,6,0,0.00
2014-4-5,48,36,30,38,31,22,96,84,60,29.89,29.48,17,4,0,0.65
2014-4-6,51,40,32,24,21,18,65,49,27,30.01,29.64,18,7,0,0.01
2014-4-7,58,45,33,30,26,21,66,47,32,30.12,29.93,13,4,0,0.00
2014-4-8,50,42,35,45,39,30,97,90,67,29.94,29.14,10,4,0,0.62
2014-4-9,49,41,31,34,24,12,76,53,30,29.76,29.23,15,7,0,0.00
2014-4-10,53,40,26,30,20,10,67,46,28,29.95,29.75,16,7,0,0.00
2014-4-11,64,50,40,37,30,26,70,50,26,29.92,29.73,18,5,0,0.00
2014-4-12,60,50,40,36,27,23,67,42,29,30.14,29.90,16,6,0,0.00
2014-4-13,43,37,33,34,30,24,98,78,53,30.28,29.91,8,3,0,0.30
2014-4-14,68,49,34,53,42,33,98,81,58,29.92,29.64,13,5,0,0.01
2014-4-15,58,54,50,55,51,46,97,92,79,29.71,29.39,21,10,0,0.67
2014-4-16,35,29,21,34,18,13,96,67,41,30.55,29.57,20,6,0,0.15
2014-4-17,44,32,17,22,17,11,77,55,35,30.75,30.55,8,4,0,0.09
2014-4-18,50,37,24,28,24,18,80,61,40,30.59,30.11,11,4,0,0.00
2014-4-19,50,38,30,35,28,22,87,67,47,30.29,30.01,16,5,0,0.00
2014-4-20,57,43,31,28,21,17,62,45,22,30.42,30.20,10,5,0,0.00
2014-4-21,66,46,34,39,31,22,70,56,34,30.19,29.69,13,4,0,0.00
2014-4-22,68,51,40,48,41,34,93,70,35,29.68,29.34,12,4,0,0.05
2014-4-23,56,46,41,46,40,33,98,79,56,29.42,29.30,15,5,0,0.21
2014-4-24,48,42,38,34,32,30,75,69,57,29.78,29.41,21,9,0,0.02
2014-4-25,58,48,37,33,27,20,75,48,24,29.86,29.74,11,5,0,0.00
2014-4-26,48,41,36,40,35,30,96,79,66,29.81,29.73,9,4,0,0.33
2014-4-27,52,42,34,41,36,33,97,80,56,29.91,29.78,16,6,0,0.11
2014-4-28,48,44,40,39,35,32,79,72,64,30.24,29.91,12,7,0,0.01
2014-4-29,56,44,36,36,32,30,77,63,44,30.48,30.24,10,5,0,0.00
2014-4-30,48,40,34,36,33,28,95,75,61,30.51,30.19,11,5,0,0.05
2014-5-1,53,44,36,48,42,35,98,95,84,30.18,29.54,6,2,0,0.99
2014-5-2,64,52,43,47,43,37,99,73,44,29.65,29.48,14,4,0,0.09
2014-5-3,66,52,42,46,40,34,88,65,40,29.72,29.61,9,3,0,0.01
2014-5-4,49,45,42,45,43,40,97,92,82,29.62,29.36,7,3,0,0.33
2014-5-5,58,48,41,42,40,38,96,76,50,29.70,29.47,17,6,0,0.01
2014-5-6,56,48,40,42,38,36,92,69,53,29.90,29.68,11,4,0,0.00
2014-5-7,67,54,41,40,35,31,76,52,30,30.07,29.90,10,5,0,0.00
2014-5-8,67,55,43,36,30,24,62,41,20,30.17,30.01,13,6,0,0.00
2014-5-9,63,50,41,44,34,25,98,58,33,30.20,29.98,13,5,0,0.01
2014-5-10,75,56,45,61,52,44,99,87,53,29.98,29.53,11,5,0,0.31
2014-5-11,71,63,55,46,42,37,63,47,33,29.88,29.60,20,6,0,0.00
2014-5-12,76,62,48,48,41,35,67,47,26,30.11,29.87,15,5,0,0.00
2014-5-13,65,52,38,44,37,33,82,58,37,30.24,30.12,11,4,0,0.00
2014-5-14,60,51,45,45,40,29,88,64,52,30.24,30.18,13,5,0,0.00
2014-5-15,68,57,46,59,52,44,99,86,69,30.22,30.13,12,6,0,0.00
2014-5-16,74,63,57,60,56,55,97,81,56,30.14,29.98,19,9,0,0.01
2014-5-17,59,57,52,58,56,51,99,98,96,29.97,29.83,20,7,0,1.11
2014-5-18,62,54,47,51,46,44,98,76,54,30.02,29.93,10,4,0,0.02
2014-5-19,53,50,47,49,47,45,95,90,80,29.94,29.89,9,4,0,0.52
2014-5-20,65,56,48,52,48,45,91,77,59,29.92,29.85,16,6,0,0.00
2014-5-21,66,57,49,54,50,47,95,79,58,29.92,29.85,6,2,0,0.00
2014-5-22,70,57,48,55,52,48,99,85,55,29.88,29.76,10,3,0,1.04
2014-5-23,61,55,52,54,52,50,99,91,77,29.91,29.80,7,2,0,0.02
2014-5-24,63,55,49,56,51,48,98,87,72,29.97,29.89,7,3,0,0.10
2014-5-25,70,60,49,55,51,47,94,75,54,30.00,29.84,9,4,0,0.00
2014-5-26,74,61,51,60,55,50,99,82,57,29.84,29.60,10,4,0,0.37
2014-5-27,57,51,46,55,47,43,99,87,66,29.96,29.71,7,3,0,0.45
2014-5-28,59,48,41,46,43,40,99,84,55,30.12,29.93,8,3,0,0.16
2014-5-29,70,56,39,47,41,34,94,60,33,30.17,30.01,9,5,0,0.00
2014-5-30,73,57,43,53,46,35,98,71,43,30.02,29.88,10,2,0,0.47
2014-5-31,69,59,50,53,46,37,99,67,34,30.21,30.00,8,3,0,0.00
2014-6-1,77,63,46,53,46,39,83,55,34,30.28,30.06,11,5,0,0.00
2014-6-2,81,66,50,58,50,40,72,57,43,30.09,29.87,11,4,0,0.00
2014-6-3,78,64,50,60,51,40,94,64,42,29.95,29.84,14,5,0,0.00
2014-6-4,54,51,47,53,49,39,99,91,68,29.85,29.70,5,2,0,0.72
2014-6-5,66,57,52,60,55,52,99,93,81,29.70,29.58,5,2,0,0.01
2014-6-6,74,62,52,59,55,52,98,79,57,29.71,29.54,12,4,0,0.00
2014-6-7,83,69,56,62,57,54,92,67,46,29.80,29.71,11,4,0,0.02
2014-6-8,87,74,62,64,59,54,76,59,39,29.84,29.70,10,3,0,0.00
2014-6-9,86,74,63,63,58,55,80,60,40,29.84,29.76,8,3,0,0.00
2014-6-10,68,62,53,57,52,49,89,68,57,30.04,29.84,10,3,0,0.00
2014-6-11,76,64,49,58,52,47,97,68,41,30.12,30.04,12,3,0,0.00
2014-6-12,60,57,52,55,52,48,97,84,65,30.15,30.06,7,2,0,0.42
2014-6-13,61,55,52,58,53,50,99,94,69,30.06,29.77,11,3,0,1.83
2014-6-14,68,62,54,68,60,54,99,96,74,29.76,29.70,6,2,0,0.05
2014-6-15,64,62,58,63,55,48,99,81,57,29.94,29.76,12,4,0,0.10
2014-6-16,64,64,64,48,48,48,57,57,57,30.06,29.91,8,3,0,0.00
2014-6-17,64,64,64,57,48,48,78,57,57,29.97,29.73,7,2,0,0.00
2014-6-18,73,67,62,72,59,48,99,76,57,29.75,29.53,9,4,0,0.82
2014-6-19,68,68,68,57,53,53,67,57,57,29.86,29.74,10,4,0,0.00
2014-6-20,68,68,68,61,53,53,78,57,57,29.84,29.79,14,4,0,0.00
2014-6-21,68,68,68,53,53,53,57,57,57,29.84,29.76,12,4,0,0.00
2014-6-22,68,27,-40,53,14,-50,67,57,56,29.93,29.81,7,2,0,0.01
2014-6-23,-40,-40,-40,-48,-49,-49,62,57,57,30.04,29.94,11,4,0,0.00
2014-6-24,-40,-40,-40,-49,-49,-49,59,57,57,30.03,29.82,13,4,0,0.00
2014-6-25,-40,-40,-40,-40,-48,-49,99,62,57,29.85,29.77,8,2,0,1.36
2014-6-26,60,42,-40,60,34,-40,99,76,57,29.93,29.77,7,4,0,0.78
2014-6-27,58,58,58,43,43,43,57,57,57,30.09,29.94,7,3,0,0.00
2014-6-28,58,58,58,51,43,43,78,57,57,30.19,30.09,6,3,0,0.00
2014-6-29,58,58,58,43,43,43,58,57,57,30.15,29.92,10,4,0,0.03
2014-6-30,58,58,58,47,43,43,67,57,57,29.94,29.72,8,2,0,0.00
2014-7-1,58,58,58,43,43,43,57,57,57,29.75,29.59,10,3,0,0.00
2014-7-2,58,58,58,51,43,43,78,57,57,29.80,29.61,11,4,0,0.16
2014-7-3,58,58,58,47,43,43,67,57,57,29.87,29.77,9,4,0,0.22
2014-7-4,58,2,58,100,98,43,57,57,57,29.89,29.74,8,2,0,0.94
2014-7-5,158,0,158,100,100,100,57,57,57,29.74,29.64,16,6,0,1.30
2014-7-6,158,0,158,100,100,100,57,57,57,29.76,29.65,14,5,0,0.01
2014-7-7,158,0,158,100,100,100,57,57,57,29.69,29.54,8,3,0,0.00
2014-7-8,158,0,158,100,100,100,67,57,57,29.64,29.52,8,4,0,0.00
2014-7-9,158,0,158,100,100,100,78,57,57,29.77,29.50,12,5,0,0.00
2014-7-10,158,0,158,100,100,100,57,57,57,30.08,29.76,9,3,0,0.00
2014-7-11,158,0,158,100,100,100,57,57,57,30.16,30.05,7,3,0,0.00
2014-7-12,158,0,158,100,100,100,57,57,57,30.14,29.99,8,4,0,0.00
2014-7-13,158,0,158,100,100,100,57,57,57,30.00,29.73,14,4,0,0.15
2014-7-14,158,0,158,100,100,100,57,57,57,29.78,29.69,9,4,0,0.28
2014-7-15,158,0,158,100,100,100,57,57,57,29.74,29.63,6,1,0,0.09
2014-7-16,158,0,158,100,100,100,57,57,57,29.72,29.65,9,3,0,0.10
2014-7-17,158,0,158,100,100,100,57,57,57,29.95,29.73,6,2,0,0.00
2014-7-18,158,0,158,100,100,100,57,57,57,30.14,29.95,7,2,0,0.00
2014-7-19,158,0,158,100,100,100,57,57,57,30.22,30.13,7,2,0,0.01
2014-7-20,158,0,158,100,100,100,57,57,57,30.16,30.10,6,1,0,0.04
2014-7-21,158,0,158,100,100,100,57,57,57,30.14,30.01,7,2,0,0.00
2014-7-22,158,0,158,100,100,100,57,57,57,30.04,29.81,7,3,0,0.00
2014-7-23,158,0,158,100,100,100,57,57,57,29.81,29.59,11,3,0,0.43
2014-7-24,158,0,158,100,100,100,57,57,57,29.80,29.63,8,3,0,0.12
2014-7-25,158,0,158,100,100,100,57,57,57,29.84,29.74,8,3,0,0.00
2014-7-26,158,0,158,100,100,100,57,57,57,29.84,29.70,8,2,0,0.02
2014-7-27,158,0,158,100,100,100,57,57,57,29.75,29.58,14,4,0,0.34
2014-7-28,158,0,158,100,100,100,57,57,57,29.59,29.33,9,3,0,1.14
2014-7-29,158,0,158,100,100,100,57,57,57,29.86,29.35,8,3,0,0.00
2014-7-30,158,0,158,100,100,100,57,57,57,29.94,29.86,6,2,0,0.00
2014-7-31,158,0,158,100,100,100,58,57,57,30.05,29.95,7,2,0,0.16
2014-8-1,158,0,158,100,100,100,78,57,57,30.14,30.05,7,2,0,0.01
2014-8-2,158,0,158,100,100,100,57,57,57,30.14,30.04,7,2,0,0.00
2014-8-3,158,0,158,100,100,100,57,57,57,30.05,29.94,6,2,0,0.01
2014-8-4,158,0,158,100,100,100,57,57,57,29.96,29.84,8,2,0,0.00
2014-8-5,158,0,158,100,100,100,57,57,57,29.93,29.77,7,3,0,0.00
2014-8-6,158,0,158,100,100,100,57,57,57,29.78,29.67,8,3,0,0.00
2014-8-7,158,0,158,100,100,100,57,57,57,29.82,29.72,8,4,0,0.04
2014-8-8,158,0,158,100,100,100,67,57,57,29.90,29.81,9,4,0,0.26
2014-8-9,158,0,158,100,100,100,57,57,57,30.00,29.90,7,4,0,0.01
2014-8-10,158,0,158,100,100,100,57,57,57,30.04,29.98,8,3,0,0.16
2014-8-11,158,0,158,100,100,100,57,57,57,30.07,30.00,6,2,0,0.01
2014-8-12,158,0,158,100,100,100,57,57,57,30.07,30.00,10,3,0,0.00
2014-8-13,158,0,158,100,100,100,57,57,57,30.00,29.66,11,4,0,2.16
2014-8-14,158,0,158,100,100,100,57,57,57,29.76,29.52,10,3,0,1.03
2014-8-15,158,0,158,100,100,100,57,57,57,29.79,29.73,7,2,0,0.00
2014-8-16,158,0,158,100,100,100,57,57,57,29.81,29.74,6,2,0,0.02
2014-8-17,158,0,158,100,100,100,57,57,57,29.78,29.64,5,1,0,0.20
2014-8-18,158,0,158,100,100,100,57,57,57,29.75,29.63,10,3,0,0.12
2014-8-19,158,0,158,100,100,100,57,57,57,29.85,29.75,8,3,0,0.00
2014-8-20,158,0,158,100,100,100,57,57,57,29.97,29.86,7,3,0,0.00
2014-8-21,158,0,158,100,100,100,57,57,57,30.04,29.96,7,3,0,0.20